Time,TemperatureF,DewpointF,PressureIn,WindDirection,WindDirectionDegrees,WindSpeedMPH,WindSpeedGustMPH,Humidity,HourlyPrecipIn,Conditions,Clouds,dailyrainin,SoftwareType,DateUTC
2013-08-20 00:01:00,70.9,67.8,30.09,WSW,246,0.0,0.0,90,0.00,,,0.39,WUHU216DAVISVP2,2013-08-20 04:01:00,
2013-08-20 00:06:00,70.8,67.7,30.09,WSW,246,0.0,0.0,90,0.00,,,0.39,WUHU216DAVISVP2,2013-08-20 04:06:00,
2013-08-20 00:11:00,70.8,67.7,30.09,WSW,246,0.0,0.0,90,0.00,,,0.00,WUHU216DAVISVP2,2013-08-20 04:11:00,
2013-08-20 00:16:00,70.8,67.7,30.09,WSW,246,0.0,0.0,90,0.00,,,0.00,WUHU216DAVISVP2,2013-08-20 04:16:00,
2013-08-20 00:21:00,70.6,67.5,30.09,WSW,246,0.0,0.0,90,0.00,,,0.00,WUHU216DAVISVP2,2013-08-20 04:21:00,
2013-08-20 00:26:00,70.8,67.7,30.09,WSW,246,0.0,0.0,90,0.00,,,0.00,WUHU216DAVISVP2,2013-08-20 04:26:00,
2013-08-20 00:31:00,70.4,67.3,30.09,WSW,246,0.0,0.0,90,0.00,,,0.00,WUHU216DAVISVP2,2013-08-20 04:31:00,
2013-08-20 00:36:00,70.6,67.5,30.09,WSW,246,0.0,0.0,90,0.00,,,0.00,WUHU216DAVISVP2,2013-08-20 04:36:00,
2013-08-20 00:41:00,70.6,67.5,30.10,WSW,246,0.0,0.0,90,0.00,,,0.00,WUHU216DAVISVP2,2013-08-20 04:41:00,
2013-08-20 00:46:00,70.4,67.6,30.10,WSW,246,0.0,0.0,91,0.00,,,0.00,WUHU216DAVISVP2,2013-08-20 04:46:00,
2013-08-20 00:51:00,70.4,67.6,30.10,WSW,246,0.0,0.0,91,0.00,,,0.00,WUHU216DAVISVP2,2013-08-20 04:51:00,
2013-08-20 00:56:00,70.4,67.6,30.10,WSW,246,0.0,0.0,91,0.00,,,0.00,WUHU216DAVISVP2,2013-08-20 04:56:00,
2013-08-20 01:01:00,70.4,67.6,30.10,WSW,246,0.0,0.0,91,0.00,,,0.00,WUHU216DAVISVP2,2013-08-20 05:01:00,
2013-08-20 01:06:00,70.3,67.5,30.10,WSW,246,0.0,0.0,91,0.00,,,0.00,WUHU216DAVISVP2,2013-08-20 05:06:00,
2013-08-20 01:11:00,70.4,67.6,30.09,WSW,246,0.0,0.0,91,0.00,,,0.00,WUHU216DAVISVP2,2013-08-20 05:11:00,
2013-08-20 01:16:00,70.6,67.8,30.09,WSW,246,0.0,0.0,91,0.00,,,0.00,WUHU216DAVISVP2,2013-08-20 05:16:00,
2013-08-20 01:21:00,70.4,67.6,30.09,WSW,246,0.0,0.0,91,0.00,,,0.00,WUHU216DAVISVP2,2013-08-20 05:21:00,
2013-08-20 01:23:00,70.4,67.6,30.08,WSW,246,0.0,0.0,91,0.00,,,0.00,WUHU216DAVISVP2,2013-08-20 05:23:00,
2013-08-20 01:33:00,70.6,67.8,30.08,WSW,246,0.0,0.0,91,0.00,,,0.00,WUHU216DAVISVP2,2013-08-20 05:33:00,
2013-08-20 01:38:00,70.3,67.5,30.08,WSW,246,0.0,0.0,91,0.00,,,0.00,WUHU216DAVISVP2,2013-08-20 05:38:00,
2013-08-20 01:43:00,70.3,67.5,30.08,WSW,246,0.0,0.0,91,0.00,,,0.00,WUHU216DAVISVP2,2013-08-20 05:43:00,
2013-08-20 01:48:00,70.3,67.5,30.08,WSW,246,0.0,0.0,91,0.00,,,0.00,WUHU216DAVISVP2,2013-08-20 05:48:00,
2013-08-20 01:53:00,70.1,67.3,30.08,WSW,246,0.0,0.0,91,0.00,,,0.00,WUHU216DAVISVP2,2013-08-20 05:53:00,
2013-08-20 01:58:00,70.3,67.5,30.08,WSW,246,0.0,0.0,91,0.00,,,0.00,WUHU216DAVISVP2,2013-08-20 05:58:00,
2013-08-20 02:03:00,70.3,67.5,30.08,WSW,246,0.0,0.0,91,0.00,,,0.00,WUHU216DAVISVP2,2013-08-20 06:03:00,
2013-08-20 02:08:00,70.3,67.5,30.08,WSW,246,0.0,0.0,91,0.00,,,0.00,WUHU216DAVISVP2,2013-08-20 06:08:00,
2013-08-20 02:13:00,70.3,67.5,30.08,WSW,246,0.0,0.0,91,0.00,,,0.00,WUHU216DAVISVP2,2013-08-20 06:13:00,
2013-08-20 02:18:00,70.3,67.5,30.08,WSW,246,0.0,0.0,91,0.00,,,0.00,WUHU216DAVISVP2,2013-08-20 06:18:00,
2013-08-20 02:23:00,70.3,67.5,30.07,WSW,246,0.0,0.0,91,0.00,,,0.00,WUHU216DAVISVP2,2013-08-20 06:23:00,
2013-08-20 02:28:00,70.4,67.6,30.07,WSW,246,0.0,0.0,91,0.00,,,0.00,WUHU216DAVISVP2,2013-08-20 06:28:00,
2013-08-20 02:33:00,70.6,67.8,30.07,WSW,246,0.0,0.0,91,0.00,,,0.00,WUHU216DAVISVP2,2013-08-20 06:33:00,
2013-08-20 02:38:00,70.4,67.6,30.07,WSW,246,0.0,0.0,91,0.00,,,0.00,WUHU216DAVISVP2,2013-08-20 06:38:00,
2013-08-20 02:43:00,70.6,67.8,30.07,WSW,246,0.0,0.0,91,0.00,,,0.00,WUHU216DAVISVP2,2013-08-20 06:43:00,
2013-08-20 02:48:00,70.8,68.0,30.07,WSW,246,0.0,0.0,91,0.00,,,0.00,WUHU216DAVISVP2,2013-08-20 06:48:00,
2013-08-20 02:54:00,70.8,68.0,30.07,WSW,246,0.0,0.0,91,0.00,,,0.00,WUHU216DAVISVP2,2013-08-20 06:54:00,
2013-08-20 02:59:00,70.8,68.0,30.07,WSW,246,0.0,0.0,91,0.00,,,0.00,WUHU216DAVISVP2,2013-08-20 06:59:00,
2013-08-20 03:04:00,71.1,68.3,30.07,WSW,246,0.0,0.0,91,0.00,,,0.00,WUHU216DAVISVP2,2013-08-20 07:04:00,
2013-08-20 03:09:00,70.9,68.1,30.07,WSW,246,0.0,0.0,91,0.00,,,0.00,WUHU216DAVISVP2,2013-08-20 07:09:00,
2013-08-20 03:14:00,71.5,69.1,30.07,WSW,246,0.0,0.0,92,0.00,,,0.00,WUHU216DAVISVP2,2013-08-20 07:14:00,
2013-08-20 03:19:00,71.3,68.9,30.07,WSW,246,0.0,0.0,92,0.00,,,0.00,WUHU216DAVISVP2,2013-08-20 07:19:00,
2013-08-20 03:24:00,71.3,68.9,30.07,WSW,246,0.0,0.0,92,0.00,,,0.00,WUHU216DAVISVP2,2013-08-20 07:24:00,
2013-08-20 03:29:00,71.3,68.9,30.07,WSW,246,0.0,0.0,92,0.00,,,0.00,WUHU216DAVISVP2,2013-08-20 07:29:00,
2013-08-20 03:34:00,71.5,69.1,30.07,WSW,246,0.0,0.0,92,0.00,,,0.00,WUHU216DAVISVP2,2013-08-20 07:34:00,
2013-08-20 03:39:00,71.8,69.3,30.07,WSW,246,0.0,0.0,92,0.00,,,0.00,WUHU216DAVISVP2,2013-08-20 07:39:00,
2013-08-20 03:44:00,71.6,69.2,30.07,WSW,246,0.0,0.0,92,0.00,,,0.00,WUHU216DAVISVP2,2013-08-20 07:44:00,
2013-08-20 03:49:00,71.6,69.1,30.07,WSW,246,0.0,0.0,92,0.00,,,0.00,WUHU216DAVISVP2,2013-08-20 07:49:00,
2013-08-20 03:54:00,71.8,69.3,30.07,WSW,246,0.0,0.0,92,0.00,,,0.00,WUHU216DAVISVP2,2013-08-20 07:54:00,
2013-08-20 03:59:00,71.6,69.1,30.07,WSW,246,0.0,0.0,92,0.00,,,0.00,WUHU216DAVISVP2,2013-08-20 07:59:00,
2013-08-20 04:04:00,71.6,69.1,30.07,WSW,246,0.0,0.0,92,0.00,,,0.00,WUHU216DAVISVP2,2013-08-20 08:04:00,
2013-08-20 04:09:00,71.5,69.0,30.07,WSW,246,0.0,0.0,92,0.00,,,0.00,WUHU216DAVISVP2,2013-08-20 08:09:00,
2013-08-20 04:13:00,71.6,69.1,30.07,WSW,246,0.0,0.0,92,0.00,,,0.00,WUHU216DAVISVP2,2013-08-20 08:13:00,
2013-08-20 04:19:00,71.8,69.3,30.07,WSW,246,0.0,0.0,92,0.00,,,0.00,WUHU216DAVISVP2,2013-08-20 08:19:00,
2013-08-20 04:24:00,71.8,69.3,30.07,WSW,246,0.0,0.0,92,0.00,,,0.00,WUHU216DAVISVP2,2013-08-20 08:24:00,
2013-08-20 04:29:00,71.3,68.8,30.07,WSW,246,0.0,0.0,92,0.00,,,0.00,WUHU216DAVISVP2,2013-08-20 08:29:00,
2013-08-20 04:34:00,71.6,69.1,30.07,WSW,246,0.0,0.0,92,0.00,,,0.00,WUHU216DAVISVP2,2013-08-20 08:34:00,
2013-08-20 04:41:00,71.1,68.6,30.07,WSW,246,0.0,0.0,92,0.00,,,0.00,WUHU216DAVISVP2,2013-08-20 08:41:00,
2013-08-20 04:46:00,71.1,68.6,30.07,WSW,246,0.0,0.0,92,0.00,,,0.00,WUHU216DAVISVP2,2013-08-20 08:46:00,
2013-08-20 04:51:00,71.3,68.8,30.07,WSW,246,0.0,0.0,92,0.00,,,0.00,WUHU216DAVISVP2,2013-08-20 08:51:00,
2013-08-20 04:56:00,70.9,68.4,30.07,WSW,246,0.0,0.0,92,0.00,,,0.00,WUHU216DAVISVP2,2013-08-20 08:56:00,
2013-08-20 05:01:00,70.9,68.4,30.07,WSW,246,0.0,0.0,92,0.00,,,0.00,WUHU216DAVISVP2,2013-08-20 09:01:00,
2013-08-20 05:06:00,70.9,68.4,30.07,WSW,246,0.0,0.0,92,0.00,,,0.00,WUHU216DAVISVP2,2013-08-20 09:06:00,
2013-08-20 05:11:00,70.8,68.3,30.07,WSW,246,0.0,0.0,92,0.00,,,0.00,WUHU216DAVISVP2,2013-08-20 09:11:00,
2013-08-20 05:16:00,70.6,68.1,30.07,WSW,246,0.0,0.0,92,0.00,,,0.00,WUHU216DAVISVP2,2013-08-20 09:16:00,
2013-08-20 05:21:00,70.8,68.3,30.07,WSW,246,0.0,0.0,92,0.00,,,0.00,WUHU216DAVISVP2,2013-08-20 09:21:00,
2013-08-20 05:26:00,70.6,68.1,30.07,WSW,246,0.0,0.0,92,0.00,,,0.00,WUHU216DAVISVP2,2013-08-20 09:26:00,
2013-08-20 05:31:00,70.4,67.9,30.07,WSW,246,0.0,0.0,92,0.00,,,0.00,WUHU216DAVISVP2,2013-08-20 09:31:00,
2013-08-20 05:36:00,70.6,68.1,30.07,WSW,246,0.0,0.0,92,0.00,,,0.00,WUHU216DAVISVP2,2013-08-20 09:36:00,
2013-08-20 05:41:00,70.3,67.8,30.08,WSW,246,0.0,0.0,92,0.00,,,0.00,WUHU216DAVISVP2,2013-08-20 09:41:00,
2013-08-20 05:46:00,70.3,67.8,30.08,WSW,246,0.0,0.0,92,0.00,,,0.00,WUHU216DAVISVP2,2013-08-20 09:46:00,
2013-08-20 05:51:00,70.6,68.1,30.08,WSW,246,0.0,0.0,92,0.00,,,0.00,WUHU216DAVISVP2,2013-08-20 09:51:00,
2013-08-20 05:56:00,70.4,67.9,30.08,WSW,246,0.0,0.0,92,0.00,,,0.00,WUHU216DAVISVP2,2013-08-20 09:56:00,
2013-08-20 06:01:00,70.6,68.1,30.08,WSW,246,0.0,0.0,92,0.00,,,0.00,WUHU216DAVISVP2,2013-08-20 10:01:00,
2013-08-20 06:06:00,70.8,68.3,30.08,WSW,246,0.0,0.0,92,0.00,,,0.00,WUHU216DAVISVP2,2013-08-20 10:06:00,
2013-08-20 06:12:00,70.6,68.1,30.08,WSW,246,0.0,0.0,92,0.00,,,0.00,WUHU216DAVISVP2,2013-08-20 10:12:00,
2013-08-20 06:17:00,70.6,68.1,30.08,WSW,246,0.0,0.0,92,0.00,,,0.00,WUHU216DAVISVP2,2013-08-20 10:17:00,
2013-08-20 06:22:00,70.6,68.1,30.08,WSW,246,0.0,0.0,92,0.00,,,0.00,WUHU216DAVISVP2,2013-08-20 10:22:00,
2013-08-20 06:27:00,70.6,68.1,30.09,WSW,246,0.0,0.0,92,0.00,,,0.00,WUHU216DAVISVP2,2013-08-20 10:27:00,
2013-08-20 06:32:00,70.6,68.1,30.09,WSW,246,0.0,0.0,92,0.00,,,0.00,WUHU216DAVISVP2,2013-08-20 10:32:00,
2013-08-20 06:37:00,70.4,67.9,30.09,WSW,246,0.0,0.0,92,0.00,,,0.00,WUHU216DAVISVP2,2013-08-20 10:37:00,
2013-08-20 06:42:00,70.4,67.9,30.09,WSW,246,0.0,0.0,92,0.00,,,0.00,WUHU216DAVISVP2,2013-08-20 10:42:00,
2013-08-20 06:47:00,70.3,67.9,30.09,WSW,246,0.0,0.0,92,0.00,,,0.00,WUHU216DAVISVP2,2013-08-20 10:47:00,
2013-08-20 06:52:00,70.3,67.9,30.09,WSW,246,0.0,0.0,92,0.00,,,0.00,WUHU216DAVISVP2,2013-08-20 10:52:00,
2013-08-20 06:57:00,70.1,67.7,30.10,WSW,246,0.0,0.0,92,0.00,,,0.00,WUHU216DAVISVP2,2013-08-20 10:57:00,
2013-08-20 07:02:00,70.1,67.7,30.10,WSW,246,0.0,0.0,92,0.00,,,0.00,WUHU216DAVISVP2,2013-08-20 11:02:00,
2013-08-20 07:07:00,70.4,68.0,30.10,WSW,246,0.0,0.0,92,0.00,,,0.00,WUHU216DAVISVP2,2013-08-20 11:07:00,
2013-08-20 07:12:00,70.1,67.7,30.10,WSW,246,0.0,0.0,92,0.00,,,0.00,WUHU216DAVISVP2,2013-08-20 11:12:00,
2013-08-20 07:17:00,70.3,67.9,30.10,WSW,246,0.0,0.0,92,0.00,,,0.00,WUHU216DAVISVP2,2013-08-20 11:17:00,
2013-08-20 07:22:00,70.3,67.9,30.10,WSW,246,0.0,0.0,92,0.00,,,0.00,WUHU216DAVISVP2,2013-08-20 11:22:00,
2013-08-20 07:27:00,70.6,68.2,30.10,WSW,246,0.0,0.0,92,0.00,,,0.00,WUHU216DAVISVP2,2013-08-20 11:27:00,
2013-08-20 07:32:00,70.6,68.2,30.10,WSW,246,0.0,0.0,92,0.00,,,0.00,WUHU216DAVISVP2,2013-08-20 11:32:00,
2013-08-20 07:37:00,70.8,68.3,30.10,WSW,246,0.0,0.0,92,0.00,,,0.00,WUHU216DAVISVP2,2013-08-20 11:37:00,
2013-08-20 07:42:00,71.1,68.6,30.11,WSW,246,0.0,0.0,92,0.00,,,0.00,WUHU216DAVISVP2,2013-08-20 11:42:00,
2013-08-20 07:48:00,71.3,68.8,30.11,WSW,246,0.0,0.0,92,0.00,,,0.00,WUHU216DAVISVP2,2013-08-20 11:48:00,
2013-08-20 07:53:00,72.0,69.5,30.11,WSW,246,0.0,0.0,92,0.00,,,0.00,WUHU216DAVISVP2,2013-08-20 11:53:00,
2013-08-20 07:58:00,72.0,69.5,30.11,WSW,246,0.0,0.0,92,0.00,,,0.00,WUHU216DAVISVP2,2013-08-20 11:58:00,
2013-08-20 08:03:00,72.0,69.5,30.11,WSW,246,0.0,0.0,92,0.00,,,0.00,WUHU216DAVISVP2,2013-08-20 12:03:00,
2013-08-20 08:08:00,72.3,69.8,30.11,WSW,246,0.0,0.0,92,0.00,,,0.00,WUHU216DAVISVP2,2013-08-20 12:08:00,
2013-08-20 08:13:00,72.5,70.0,30.11,WSW,246,0.0,0.0,92,0.00,,,0.00,WUHU216DAVISVP2,2013-08-20 12:13:00,
2013-08-20 08:18:00,72.5,70.0,30.11,WSW,246,0.0,0.0,92,0.00,,,0.00,WUHU216DAVISVP2,2013-08-20 12:18:00,
2013-08-20 08:23:00,73.0,70.5,30.11,WSW,246,0.0,0.0,92,0.00,,,0.00,WUHU216DAVISVP2,2013-08-20 12:23:00,
2013-08-20 08:28:00,73.3,70.8,30.11,WSW,246,0.0,0.0,92,0.00,,,0.00,WUHU216DAVISVP2,2013-08-20 12:28:00,
2013-08-20 08:33:00,73.7,71.2,30.11,WSW,246,0.0,0.0,92,0.00,,,0.00,WUHU216DAVISVP2,2013-08-20 12:33:00,
2013-08-20 08:38:00,74.4,71.9,30.11,WSW,246,0.0,0.0,92,0.00,,,0.00,WUHU216DAVISVP2,2013-08-20 12:38:00,
2013-08-20 08:43:00,74.9,72.7,30.11,WSW,246,0.0,0.0,93,0.00,,,0.00,WUHU216DAVISVP2,2013-08-20 12:43:00,
2013-08-20 08:48:00,75.1,72.6,30.11,WSW,246,0.0,0.0,92,0.00,,,0.00,WUHU216DAVISVP2,2013-08-20 12:48:00,
2013-08-20 08:53:00,75.4,72.9,30.11,WSW,246,0.0,0.0,92,0.00,,,0.00,WUHU216DAVISVP2,2013-08-20 12:53:00,
2013-08-20 08:58:00,75.4,72.9,30.11,WSW,246,0.0,0.0,92,0.00,,,0.00,WUHU216DAVISVP2,2013-08-20 12:58:00,
2013-08-20 09:03:00,75.6,73.1,30.11,WSW,246,0.0,0.0,92,0.00,,,0.00,WUHU216DAVISVP2,2013-08-20 13:03:00,
2013-08-20 09:08:00,75.8,73.3,30.12,WSW,246,0.0,0.0,92,0.00,,,0.00,WUHU216DAVISVP2,2013-08-20 13:08:00,
2013-08-20 09:13:00,75.4,72.6,30.12,WSW,246,0.0,0.0,91,0.00,,,0.00,WUHU216DAVISVP2,2013-08-20 13:13:00,
2013-08-20 09:18:00,75.3,72.5,30.12,WSW,246,0.0,0.0,91,0.00,,,0.00,WUHU216DAVISVP2,2013-08-20 13:18:00,
2013-08-20 09:23:00,74.9,71.8,30.12,WSW,246,0.0,0.0,90,0.00,,,0.00,WUHU216DAVISVP2,2013-08-20 13:23:00,
2013-08-20 09:28:00,74.7,71.9,30.12,WSW,246,0.0,0.0,91,0.00,,,0.00,WUHU216DAVISVP2,2013-08-20 13:28:00,
2013-08-20 09:33:00,74.6,71.5,30.12,WSW,246,0.0,0.0,90,0.00,,,0.00,WUHU216DAVISVP2,2013-08-20 13:33:00,
2013-08-20 09:38:00,74.7,71.9,30.13,WSW,246,0.0,0.0,91,0.00,,,0.00,WUHU216DAVISVP2,2013-08-20 13:38:00,
2013-08-20 09:43:00,74.6,71.5,30.13,WSW,246,0.0,0.0,90,0.00,,,0.00,WUHU216DAVISVP2,2013-08-20 13:43:00,
2013-08-20 09:48:00,74.7,71.9,30.13,WSW,246,0.0,0.0,91,0.00,,,0.00,WUHU216DAVISVP2,2013-08-20 13:48:00,
2013-08-20 09:53:00,75.1,72.3,30.13,WSW,246,0.0,0.0,91,0.00,,,0.00,WUHU216DAVISVP2,2013-08-20 13:53:00,
2013-08-20 09:58:00,75.3,72.2,30.13,WSW,246,0.0,0.0,90,0.00,,,0.00,WUHU216DAVISVP2,2013-08-20 13:58:00,
2013-08-20 10:03:00,75.3,72.2,30.13,WSW,246,0.0,0.0,90,0.00,,,0.00,WUHU216DAVISVP2,2013-08-20 14:03:00,
2013-08-20 10:08:00,75.4,72.3,30.13,WSW,246,0.0,0.0,90,0.00,,,0.00,WUHU216DAVISVP2,2013-08-20 14:08:00,
2013-08-20 10:13:00,75.4,72.3,30.13,WSW,246,0.0,0.0,90,0.00,,,0.00,WUHU216DAVISVP2,2013-08-20 14:13:00,
2013-08-20 10:18:00,75.6,72.5,30.13,WSW,246,0.0,0.0,90,0.00,,,0.00,WUHU216DAVISVP2,2013-08-20 14:18:00,
2013-08-20 10:23:00,75.8,72.7,30.13,WSW,246,0.0,0.0,90,0.00,,,0.00,WUHU216DAVISVP2,2013-08-20 14:23:00,
2013-08-20 10:28:00,75.8,72.3,30.13,WSW,246,0.0,0.0,89,0.00,,,0.00,WUHU216DAVISVP2,2013-08-20 14:28:00,
2013-08-20 10:33:00,75.6,72.1,30.13,WSW,246,0.0,0.0,89,0.00,,,0.00,WUHU216DAVISVP2,2013-08-20 14:33:00,
2013-08-20 10:38:00,75.8,72.3,30.13,WSW,246,0.0,0.0,89,0.00,,,0.00,WUHU216DAVISVP2,2013-08-20 14:38:00,
2013-08-20 10:44:00,76.0,72.5,30.13,WSW,246,0.0,0.0,89,0.00,,,0.00,WUHU216DAVISVP2,2013-08-20 14:44:00,
2013-08-20 10:49:00,76.5,72.7,30.13,WSW,246,0.0,0.0,88,0.00,,,0.00,WUHU216DAVISVP2,2013-08-20 14:49:00,
2013-08-20 10:54:00,76.3,72.2,30.14,WSW,246,0.0,0.0,87,0.00,,,0.00,WUHU216DAVISVP2,2013-08-20 14:54:00,
2013-08-20 10:59:00,76.5,72.4,30.14,WSW,246,0.0,0.0,87,0.00,,,0.00,WUHU216DAVISVP2,2013-08-20 14:59:00,
2013-08-20 11:04:00,76.7,72.6,30.14,WSW,246,0.0,0.0,87,0.00,,,0.00,WUHU216DAVISVP2,2013-08-20 15:04:00,
2013-08-20 11:09:00,76.7,72.6,30.14,WSW,246,0.0,0.0,87,0.00,,,0.00,WUHU216DAVISVP2,2013-08-20 15:09:00,
2013-08-20 11:14:00,77.0,72.5,30.14,WSW,246,0.0,0.0,86,0.00,,,0.00,WUHU216DAVISVP2,2013-08-20 15:14:00,
2013-08-20 11:19:00,77.2,72.4,30.14,WSW,246,0.0,0.0,85,0.00,,,0.00,WUHU216DAVISVP2,2013-08-20 15:19:00,
2013-08-20 11:24:00,77.6,73.1,30.14,WSW,246,0.0,0.0,86,0.00,,,0.00,WUHU216DAVISVP2,2013-08-20 15:24:00,
2013-08-20 11:29:00,77.6,73.1,30.14,WSW,246,0.0,0.0,86,0.00,,,0.00,WUHU216DAVISVP2,2013-08-20 15:29:00,
2013-08-20 11:34:00,77.6,73.1,30.14,WSW,246,0.0,0.0,86,0.00,,,0.00,WUHU216DAVISVP2,2013-08-20 15:34:00,
2013-08-20 11:39:00,77.6,73.1,30.14,WSW,246,0.0,0.0,86,0.00,,,0.00,WUHU216DAVISVP2,2013-08-20 15:39:00,
2013-08-20 11:44:00,77.7,73.2,30.14,WSW,246,0.0,0.0,86,0.00,,,0.00,WUHU216DAVISVP2,2013-08-20 15:44:00,
2013-08-20 11:49:00,78.1,73.6,30.14,WSW,246,0.0,0.0,86,0.00,,,0.00,WUHU216DAVISVP2,2013-08-20 15:49:00,
2013-08-20 11:54:00,77.9,73.1,30.14,WSW,246,0.0,0.0,85,0.00,,,0.00,WUHU216DAVISVP2,2013-08-20 15:54:00,
2013-08-20 11:59:00,77.9,73.4,30.14,WSW,246,0.0,0.0,86,0.00,,,0.00,WUHU216DAVISVP2,2013-08-20 15:59:00,
2013-08-20 12:04:00,77.9,73.4,30.14,WSW,246,0.0,0.0,86,0.00,,,0.00,WUHU216DAVISVP2,2013-08-20 16:04:00,
2013-08-20 12:09:00,77.9,73.4,30.15,WSW,246,0.0,0.0,86,0.00,,,0.00,WUHU216DAVISVP2,2013-08-20 16:09:00,
2013-08-20 12:14:00,78.1,73.2,30.15,WSW,246,0.0,0.0,85,0.00,,,0.00,WUHU216DAVISVP2,2013-08-20 16:14:00,
2013-08-20 12:19:00,78.1,73.3,30.15,WSW,246,0.0,0.0,85,0.00,,,0.00,WUHU216DAVISVP2,2013-08-20 16:19:00,
2013-08-20 12:24:00,78.1,72.9,30.15,WSW,246,0.0,0.0,84,0.00,,,0.00,WUHU216DAVISVP2,2013-08-20 16:24:00,
2013-08-20 12:29:00,78.1,72.6,30.15,WSW,246,0.0,0.0,83,0.00,,,0.00,WUHU216DAVISVP2,2013-08-20 16:29:00,
2013-08-20 12:34:00,78.6,73.1,30.15,WSW,244,0.0,0.0,83,0.00,,,0.00,WUHU216DAVISVP2,2013-08-20 16:34:00,
2013-08-20 12:39:00,78.6,73.1,30.14,WSW,246,0.0,0.0,83,0.00,,,0.00,WUHU216DAVISVP2,2013-08-20 16:39:00,
2013-08-20 12:44:00,79.0,73.5,30.14,WSW,246,0.0,0.0,83,0.00,,,0.00,WUHU216DAVISVP2,2013-08-20 16:44:00,
2013-08-20 12:49:00,79.2,73.3,30.14,East,82,0.0,0.0,82,0.00,,,0.00,WUHU216DAVISVP2,2013-08-20 16:49:00,
2013-08-20 12:54:00,79.4,73.2,30.14,East,80,0.0,0.0,81,0.00,,,0.00,WUHU216DAVISVP2,2013-08-20 16:54:00,
2013-08-20 12:59:00,79.6,73.4,30.14,East,80,0.0,0.0,81,0.00,,,0.00,WUHU216DAVISVP2,2013-08-20 16:59:00,
2013-08-20 13:04:00,79.8,73.2,30.14,East,80,0.0,0.0,80,0.00,,,0.00,WUHU216DAVISVP2,2013-08-20 17:04:00,
2013-08-20 13:09:00,79.9,73.3,30.14,East,80,0.0,0.0,80,0.00,,,0.00,WUHU216DAVISVP2,2013-08-20 17:09:00,
2013-08-20 13:14:00,80.1,73.5,30.14,East,80,0.0,0.0,80,0.00,,,0.00,WUHU216DAVISVP2,2013-08-20 17:14:00,
2013-08-20 13:19:00,80.1,72.8,30.14,East,80,0.0,0.0,78,0.00,,,0.00,WUHU216DAVISVP2,2013-08-20 17:19:00,
2013-08-20 13:24:00,80.1,73.1,30.14,East,80,0.0,0.0,79,0.00,,,0.00,WUHU216DAVISVP2,2013-08-20 17:24:00,
2013-08-20 13:29:00,80.3,73.3,30.14,East,80,0.0,0.0,79,0.00,,,0.00,WUHU216DAVISVP2,2013-08-20 17:29:00,
2013-08-20 13:34:00,80.5,73.1,30.14,East,80,0.0,0.0,78,0.00,,,0.00,WUHU216DAVISVP2,2013-08-20 17:34:00,
2013-08-20 13:39:00,80.7,73.0,30.14,East,80,0.0,0.0,77,0.00,,,0.00,WUHU216DAVISVP2,2013-08-20 17:39:00,
2013-08-20 13:44:00,81.2,73.5,30.14,East,80,0.0,0.0,77,0.00,,,0.00,WUHU216DAVISVP2,2013-08-20 17:44:00,
2013-08-20 13:49:00,81.4,73.3,30.14,East,80,0.0,0.0,76,0.00,,,0.00,WUHU216DAVISVP2,2013-08-20 17:49:00,
2013-08-20 13:54:00,81.2,73.1,30.13,East,80,0.0,0.0,76,0.00,,,0.00,WUHU216DAVISVP2,2013-08-20 17:54:00,
2013-08-20 13:59:00,81.6,74.2,30.13,East,80,0.0,0.0,78,0.00,,,0.00,WUHU216DAVISVP2,2013-08-20 17:59:00,
2013-08-20 14:04:00,82.0,74.2,30.13,East,80,0.0,0.0,77,0.00,,,0.00,WUHU216DAVISVP2,2013-08-20 18:04:00,
2013-08-20 14:09:00,81.8,73.5,30.13,East,80,0.0,0.0,76,0.00,,,0.00,WUHU216DAVISVP2,2013-08-20 18:09:00,
2013-08-20 14:14:00,81.6,73.7,30.13,East,80,0.0,0.0,77,0.00,,,0.00,WUHU216DAVISVP2,2013-08-20 18:14:00,
2013-08-20 14:19:00,81.6,73.7,30.13,East,80,0.0,0.0,77,0.00,,,0.00,WUHU216DAVISVP2,2013-08-20 18:19:00,
2013-08-20 14:24:00,81.2,73.3,30.13,East,80,0.0,0.0,77,0.00,,,0.00,WUHU216DAVISVP2,2013-08-20 18:24:00,
2013-08-20 14:29:00,81.1,73.2,30.13,East,80,0.0,0.0,77,0.00,,,0.00,WUHU216DAVISVP2,2013-08-20 18:29:00,
2013-08-20 14:34:00,81.1,74.1,30.13,East,80,0.0,0.0,79,0.00,,,0.00,WUHU216DAVISVP2,2013-08-20 18:34:00,
2013-08-20 14:39:00,81.1,74.1,30.12,East,80,0.0,0.0,79,0.00,,,0.00,WUHU216DAVISVP2,2013-08-20 18:39:00,
2013-08-20 14:44:00,80.9,73.9,30.12,East,80,0.0,0.0,79,0.00,,,0.00,WUHU216DAVISVP2,2013-08-20 18:44:00,
2013-08-20 14:49:00,80.5,73.5,30.12,East,80,0.0,0.0,79,0.00,,,0.00,WUHU216DAVISVP2,2013-08-20 18:49:00,
2013-08-20 14:54:00,80.1,73.1,30.12,East,80,0.0,0.0,79,0.00,,,0.00,WUHU216DAVISVP2,2013-08-20 18:54:00,
2013-08-20 14:59:00,79.9,73.3,30.12,East,80,0.0,0.0,80,0.00,,,0.00,WUHU216DAVISVP2,2013-08-20 18:59:00,
2013-08-20 15:04:00,79.9,73.3,30.12,East,80,0.0,0.0,80,0.00,,,0.00,WUHU216DAVISVP2,2013-08-20 19:04:00,
2013-08-20 15:09:00,79.9,72.9,30.12,East,80,0.0,0.0,79,0.00,,,0.00,WUHU216DAVISVP2,2013-08-20 19:09:00,
2013-08-20 15:14:00,79.9,72.8,30.12,East,80,0.0,0.0,79,0.00,,,0.00,WUHU216DAVISVP2,2013-08-20 19:14:00,
2013-08-20 15:19:00,80.1,73.1,30.12,East,80,0.0,0.0,79,0.00,,,0.00,WUHU216DAVISVP2,2013-08-20 19:19:00,
2013-08-20 15:24:00,80.3,73.6,30.11,East,80,0.0,0.0,80,0.00,,,0.00,WUHU216DAVISVP2,2013-08-20 19:24:00,
2013-08-20 15:29:00,80.5,73.1,30.11,East,80,0.0,0.0,78,0.00,,,0.00,WUHU216DAVISVP2,2013-08-20 19:29:00,
2013-08-20 15:34:00,81.1,73.4,30.11,East,80,0.0,0.0,77,0.00,,,0.00,WUHU216DAVISVP2,2013-08-20 19:34:00,
2013-08-20 15:39:00,82.0,74.6,30.11,East,80,0.0,0.0,78,0.00,,,0.00,WUHU216DAVISVP2,2013-08-20 19:39:00,
2013-08-20 15:44:00,82.8,75.0,30.11,East,79,0.0,0.0,77,0.00,,,0.00,WUHU216DAVISVP2,2013-08-20 19:44:00,
2013-08-20 15:49:00,83.0,74.6,30.11,East,79,0.0,0.0,76,0.00,,,0.00,WUHU216DAVISVP2,2013-08-20 19:49:00,
2013-08-20 15:54:00,82.6,74.4,30.10,East,79,0.0,0.0,76,0.00,,,0.00,WUHU216DAVISVP2,2013-08-20 19:54:00,
2013-08-20 15:59:00,82.2,74.3,30.10,East,79,0.0,0.0,77,0.00,,,0.00,WUHU216DAVISVP2,2013-08-20 19:59:00,
2013-08-20 16:04:00,81.8,74.0,30.10,East,79,0.0,0.0,77,0.00,,,0.00,WUHU216DAVISVP2,2013-08-20 20:04:00,
2013-08-20 16:09:00,81.6,73.7,30.09,East,79,0.0,0.0,77,0.00,,,0.00,WUHU216DAVISVP2,2013-08-20 20:09:00,
2013-08-20 16:14:00,81.4,73.3,30.09,East,79,0.0,0.0,76,0.00,,,0.00,WUHU216DAVISVP2,2013-08-20 20:14:00,
2013-08-20 16:19:00,81.4,73.7,30.09,East,79,0.0,0.0,77,0.00,,,0.00,WUHU216DAVISVP2,2013-08-20 20:19:00,
2013-08-20 16:24:00,81.4,74.0,30.09,East,79,0.0,0.0,78,0.00,,,0.00,WUHU216DAVISVP2,2013-08-20 20:24:00,
2013-08-20 16:29:00,81.2,73.8,30.09,East,79,0.0,0.0,78,0.00,,,0.00,WUHU216DAVISVP2,2013-08-20 20:29:00,
2013-08-20 16:34:00,81.2,73.5,30.09,East,79,0.0,0.0,77,0.00,,,0.00,WUHU216DAVISVP2,2013-08-20 20:34:00,
2013-08-20 16:39:00,81.1,73.4,30.10,East,79,0.0,0.0,77,0.00,,,0.00,WUHU216DAVISVP2,2013-08-20 20:39:00,
2013-08-20 16:44:00,81.2,73.5,30.10,East,79,0.0,0.0,77,0.00,,,0.00,WUHU216DAVISVP2,2013-08-20 20:44:00,
2013-08-20 16:49:00,81.2,73.5,30.10,East,79,0.0,0.0,77,0.00,,,0.00,WUHU216DAVISVP2,2013-08-20 20:49:00,
2013-08-20 16:54:00,81.6,73.8,30.09,East,79,0.0,0.0,77,0.00,,,0.00,WUHU216DAVISVP2,2013-08-20 20:54:00,
2013-08-20 16:59:00,82.0,73.9,30.09,East,79,0.0,0.0,76,0.00,,,0.00,WUHU216DAVISVP2,2013-08-20 20:59:00,
2013-08-20 17:04:00,82.2,73.9,30.09,East,79,0.0,0.0,76,0.00,,,0.00,WUHU216DAVISVP2,2013-08-20 21:04:00,
2013-08-20 17:09:00,82.2,73.9,30.09,East,79,0.0,0.0,76,0.00,,,0.00,WUHU216DAVISVP2,2013-08-20 21:09:00,
2013-08-20 17:14:00,82.2,73.7,30.09,ENE,78,0.0,0.0,75,0.00,,,0.00,WUHU216DAVISVP2,2013-08-20 21:14:00,
2013-08-20 17:19:00,82.4,74.2,30.09,ENE,78,0.0,0.0,76,0.00,,,0.00,WUHU216DAVISVP2,2013-08-20 21:19:00,
2013-08-20 17:24:00,82.2,73.7,30.10,ENE,78,0.0,0.0,75,0.00,,,0.00,WUHU216DAVISVP2,2013-08-20 21:24:00,
2013-08-20 17:29:00,82.0,73.3,30.10,East,85,0.0,7.0,75,0.00,,,0.00,WUHU216DAVISVP2,2013-08-20 21:29:00,
2013-08-20 17:34:00,81.6,73.3,30.10,East,92,0.0,7.0,76,0.00,,,0.00,WUHU216DAVISVP2,2013-08-20 21:34:00,
2013-08-20 17:39:00,81.6,73.8,30.10,East,92,0.0,0.0,77,0.00,,,0.00,WUHU216DAVISVP2,2013-08-20 21:39:00,
2013-08-20 17:45:00,81.2,73.5,30.10,East,92,0.0,0.0,77,0.00,,,0.00,WUHU216DAVISVP2,2013-08-20 21:45:00,
2013-08-20 17:50:00,81.1,73.4,30.10,East,92,0.0,0.0,77,0.00,,,0.00,WUHU216DAVISVP2,2013-08-20 21:50:00,
2013-08-20 17:55:00,80.9,73.2,30.09,East,92,0.0,0.0,77,0.00,,,0.00,WUHU216DAVISVP2,2013-08-20 21:55:00,
2013-08-20 18:00:00,80.9,73.2,30.09,East,92,0.0,0.0,77,0.00,,,0.00,WUHU216DAVISVP2,2013-08-20 22:00:00,
2013-08-20 18:05:00,81.1,73.7,30.09,East,92,0.0,0.0,78,0.00,,,0.00,WUHU216DAVISVP2,2013-08-20 22:05:00,
2013-08-20 18:10:00,81.1,73.6,30.10,East,92,0.0,0.0,78,0.00,,,0.00,WUHU216DAVISVP2,2013-08-20 22:10:00,
2013-08-20 18:15:00,81.1,73.6,30.10,East,92,0.0,0.0,78,0.00,,,0.00,WUHU216DAVISVP2,2013-08-20 22:15:00,
2013-08-20 18:20:00,80.9,73.5,30.10,East,92,0.0,0.0,78,0.00,,,0.00,WUHU216DAVISVP2,2013-08-20 22:20:00,
2013-08-20 18:25:00,80.7,73.7,30.09,East,92,0.0,0.0,79,0.00,,,0.00,WUHU216DAVISVP2,2013-08-20 22:25:00,
2013-08-20 18:30:00,80.5,73.5,30.09,East,92,0.0,0.0,79,0.00,,,0.00,WUHU216DAVISVP2,2013-08-20 22:30:00,
2013-08-20 18:35:00,80.5,73.5,30.09,East,92,0.0,0.0,79,0.00,,,0.00,WUHU216DAVISVP2,2013-08-20 22:35:00,
2013-08-20 18:40:00,80.1,73.5,30.09,East,92,0.0,0.0,80,0.00,,,0.00,WUHU216DAVISVP2,2013-08-20 22:40:00,
2013-08-20 18:45:00,79.9,73.2,30.09,East,92,0.0,0.0,80,0.00,,,0.00,WUHU216DAVISVP2,2013-08-20 22:45:00,
2013-08-20 18:50:00,79.6,72.9,30.09,East,92,0.0,0.0,80,0.00,,,0.00,WUHU216DAVISVP2,2013-08-20 22:50:00,
2013-08-20 18:55:00,79.4,73.2,30.09,East,92,0.0,0.0,81,0.00,,,0.00,WUHU216DAVISVP2,2013-08-20 22:55:00,
2013-08-20 19:00:00,79.2,73.0,30.09,East,92,0.0,0.0,81,0.00,,,0.00,WUHU216DAVISVP2,2013-08-20 23:00:00,
2013-08-20 19:05:00,78.8,72.6,30.09,East,92,0.0,0.0,81,0.00,,,0.00,WUHU216DAVISVP2,2013-08-20 23:05:00,
2013-08-20 19:10:00,78.8,72.6,30.09,East,92,0.0,0.0,81,0.00,,,0.00,WUHU216DAVISVP2,2013-08-20 23:10:00,
2013-08-20 19:15:00,78.6,72.7,30.09,East,92,0.0,0.0,82,0.00,,,0.00,WUHU216DAVISVP2,2013-08-20 23:15:00,
2013-08-20 19:20:00,78.6,72.7,30.09,East,92,0.0,0.0,82,0.00,,,0.00,WUHU216DAVISVP2,2013-08-20 23:20:00,
2013-08-20 19:25:00,78.5,72.6,30.10,East,92,0.0,0.0,82,0.00,,,0.00,WUHU216DAVISVP2,2013-08-20 23:25:00,
2013-08-20 19:30:00,78.5,72.6,30.10,East,92,0.0,0.0,82,0.00,,,0.00,WUHU216DAVISVP2,2013-08-20 23:30:00,
2013-08-20 19:35:00,78.3,72.8,30.10,East,92,0.0,0.0,83,0.00,,,0.00,WUHU216DAVISVP2,2013-08-20 23:35:00,
2013-08-20 19:40:00,78.1,72.6,30.10,East,92,0.0,0.0,83,0.00,,,0.00,WUHU216DAVISVP2,2013-08-20 23:40:00,
2013-08-20 19:45:00,78.1,72.5,30.10,East,92,0.0,0.0,83,0.00,,,0.00,WUHU216DAVISVP2,2013-08-20 23:45:00,
2013-08-20 19:50:00,77.9,72.4,30.10,East,92,0.0,0.0,83,0.00,,,0.00,WUHU216DAVISVP2,2013-08-20 23:50:00,
2013-08-20 19:55:00,77.7,72.2,30.10,East,92,0.0,0.0,83,0.00,,,0.00,WUHU216DAVISVP2,2013-08-20 23:55:00,
2013-08-20 20:00:00,77.7,72.5,30.10,East,92,0.0,0.0,84,0.00,,,0.00,WUHU216DAVISVP2,2013-08-21 00:00:00,
2013-08-20 20:05:00,77.6,72.4,30.10,East,92,0.0,0.0,84,0.00,,,0.00,WUHU216DAVISVP2,2013-08-21 00:05:00,
2013-08-20 20:10:00,77.6,72.4,30.11,East,92,0.0,0.0,84,0.00,,,0.00,WUHU216DAVISVP2,2013-08-21 00:10:00,
2013-08-20 20:15:00,77.4,72.2,30.11,East,92,0.0,0.0,84,0.00,,,0.00,WUHU216DAVISVP2,2013-08-21 00:15:00,
2013-08-20 20:20:00,77.4,72.2,30.11,East,92,0.0,0.0,84,0.00,,,0.00,WUHU216DAVISVP2,2013-08-21 00:20:00,
2013-08-20 20:25:00,77.2,72.0,30.11,East,92,0.0,0.0,84,0.00,,,0.00,WUHU216DAVISVP2,2013-08-21 00:25:00,
2013-08-20 20:30:00,77.0,71.8,30.11,East,92,0.0,0.0,84,0.00,,,0.00,WUHU216DAVISVP2,2013-08-21 00:30:00,
2013-08-20 20:35:00,77.0,72.2,30.11,East,92,0.0,0.0,85,0.00,,,0.00,WUHU216DAVISVP2,2013-08-21 00:35:00,
2013-08-20 20:40:00,76.8,71.9,30.11,East,92,0.0,0.0,85,0.00,,,0.00,WUHU216DAVISVP2,2013-08-21 00:40:00,
2013-08-20 20:45:00,76.7,71.9,30.11,East,92,0.0,0.0,85,0.00,,,0.00,WUHU216DAVISVP2,2013-08-21 00:45:00,
2013-08-20 20:50:00,76.7,71.9,30.11,East,92,0.0,0.0,85,0.00,,,0.00,WUHU216DAVISVP2,2013-08-21 00:50:00,
2013-08-20 20:55:00,76.5,71.7,30.11,East,92,0.0,0.0,85,0.00,,,0.00,WUHU216DAVISVP2,2013-08-21 00:55:00,
2013-08-20 21:00:00,76.5,71.7,30.11,East,92,0.0,0.0,85,0.00,,,0.00,WUHU216DAVISVP2,2013-08-21 01:00:00,
2013-08-20 21:05:00,76.5,71.7,30.11,East,92,0.0,0.0,85,0.00,,,0.00,WUHU216DAVISVP2,2013-08-21 01:05:00,
2013-08-20 21:10:00,76.3,71.5,30.11,East,92,0.0,0.0,85,0.00,,,0.00,WUHU216DAVISVP2,2013-08-21 01:10:00,
2013-08-20 21:15:00,76.3,71.8,30.11,East,92,0.0,0.0,86,0.00,,,0.00,WUHU216DAVISVP2,2013-08-21 01:15:00,
2013-08-20 21:19:00,76.3,71.8,30.11,East,92,0.0,0.0,86,0.00,,,0.00,WUHU216DAVISVP2,2013-08-21 01:19:00,
2013-08-20 21:24:00,76.3,71.8,30.12,East,92,0.0,0.0,86,0.00,,,0.00,WUHU216DAVISVP2,2013-08-21 01:24:00,
2013-08-20 21:29:00,76.1,71.6,30.12,East,92,0.0,0.0,86,0.00,,,0.00,WUHU216DAVISVP2,2013-08-21 01:29:00,
2013-08-20 21:34:00,76.1,71.6,30.12,East,92,0.0,0.0,86,0.00,,,0.00,WUHU216DAVISVP2,2013-08-21 01:34:00,
2013-08-20 21:40:00,76.1,72.0,30.12,East,92,0.0,0.0,87,0.00,,,0.00,WUHU216DAVISVP2,2013-08-21 01:40:00,
2013-08-20 21:45:00,76.1,71.9,30.12,East,92,0.0,0.0,87,0.00,,,0.00,WUHU216DAVISVP2,2013-08-21 01:45:00,
2013-08-20 21:51:00,76.3,72.2,30.12,East,92,0.0,0.0,87,0.00,,,0.00,WUHU216DAVISVP2,2013-08-21 01:51:00,
2013-08-20 21:56:00,76.3,72.2,30.12,East,92,0.0,0.0,87,0.00,,,0.00,WUHU216DAVISVP2,2013-08-21 01:56:00,
2013-08-20 22:01:00,76.1,71.9,30.12,East,92,0.0,0.0,87,0.00,,,0.00,WUHU216DAVISVP2,2013-08-21 02:01:00,
2013-08-20 22:06:00,76.1,72.0,30.12,East,92,0.0,0.0,87,0.00,,,0.00,WUHU216DAVISVP2,2013-08-21 02:06:00,
2013-08-20 22:11:00,76.1,72.0,30.13,East,92,0.0,0.0,87,0.00,,,0.00,WUHU216DAVISVP2,2013-08-21 02:11:00,
2013-08-20 22:16:00,76.1,72.0,30.13,East,92,0.0,0.0,87,0.00,,,0.00,WUHU216DAVISVP2,2013-08-21 02:16:00,
2013-08-20 22:21:00,76.0,72.2,30.13,East,92,0.0,0.0,88,0.00,,,0.00,WUHU216DAVISVP2,2013-08-21 02:21:00,
2013-08-20 22:26:00,76.0,72.2,30.13,East,92,0.0,0.0,88,0.00,,,0.00,WUHU216DAVISVP2,2013-08-21 02:26:00,
2013-08-20 22:31:00,76.1,72.3,30.13,East,92,0.0,0.0,88,0.00,,,0.00,WUHU216DAVISVP2,2013-08-21 02:31:00,
2013-08-20 22:36:00,76.0,72.2,30.13,East,92,0.0,0.0,88,0.00,,,0.00,WUHU216DAVISVP2,2013-08-21 02:36:00,
2013-08-20 22:41:00,76.0,72.2,30.13,East,92,0.0,0.0,88,0.00,,,0.00,WUHU216DAVISVP2,2013-08-21 02:41:00,
2013-08-20 22:46:00,76.0,72.2,30.13,East,92,0.0,0.0,88,0.00,,,0.00,WUHU216DAVISVP2,2013-08-21 02:46:00,
2013-08-20 22:51:00,76.0,72.2,30.13,East,92,0.0,0.0,88,0.00,,,0.00,WUHU216DAVISVP2,2013-08-21 02:51:00,
2013-08-20 22:56:00,76.0,72.2,30.12,East,92,0.0,0.0,88,0.00,,,0.00,WUHU216DAVISVP2,2013-08-21 02:56:00,
2013-08-20 23:01:00,76.0,72.2,30.12,East,92,0.0,0.0,88,0.00,,,0.00,WUHU216DAVISVP2,2013-08-21 03:01:00,
2013-08-20 23:06:00,76.0,72.2,30.12,East,92,0.0,0.0,88,0.00,,,0.00,WUHU216DAVISVP2,2013-08-21 03:06:00,
2013-08-20 23:11:00,76.0,72.2,30.13,East,92,0.0,0.0,88,0.00,,,0.00,WUHU216DAVISVP2,2013-08-21 03:11:00,
2013-08-20 23:16:00,76.0,72.2,30.13,East,92,0.0,0.0,88,0.00,,,0.00,WUHU216DAVISVP2,2013-08-21 03:16:00,
2013-08-20 23:21:00,76.1,72.3,30.13,East,92,0.0,0.0,88,0.00,,,0.00,WUHU216DAVISVP2,2013-08-21 03:21:00,
2013-08-20 23:26:00,76.0,72.2,30.13,East,92,0.0,0.0,88,0.00,,,0.00,WUHU216DAVISVP2,2013-08-21 03:26:00,
2013-08-20 23:31:00,76.1,72.3,30.13,East,92,0.0,0.0,88,0.00,,,0.00,WUHU216DAVISVP2,2013-08-21 03:31:00,
2013-08-20 23:36:00,76.1,72.3,30.13,East,92,0.0,0.0,88,0.00,,,0.00,WUHU216DAVISVP2,2013-08-21 03:36:00,
2013-08-20 23:41:00,76.0,72.2,30.13,East,92,0.0,0.0,88,0.00,,,0.00,WUHU216DAVISVP2,2013-08-21 03:41:00,
2013-08-20 23:46:00,76.1,72.3,30.13,East,92,0.0,0.0,88,0.00,,,0.00,WUHU216DAVISVP2,2013-08-21 03:46:00,
2013-08-20 23:51:00,76.0,72.2,30.13,East,92,0.0,0.0,88,0.00,,,0.00,WUHU216DAVISVP2,2013-08-21 03:51:00,
2013-08-20 23:56:00,76.0,72.2,30.14,East,92,0.0,0.0,88,0.00,,,0.00,WUHU216DAVISVP2,2013-08-21 03:56:00,